Location: Unspecified
(0.0000°N, 0.0000°E)
Time: 18:18:51
(UTC+00:00)

Vanguard 3 - Pass Details

Date: 25 September 2023
Orbit: 507 x 3241 km, 33.3° (Epoch: 29 November)

Event Time Altitude Azimuth Distance (km) Brightness Sun altitude
Rises 03:32:05 0° 310° (NW) 2,773 - -34.9°
Reaches altitude 10° 03:33:59 10° 312° (NW) 2,008 - -34.5°
Maximum altitude 03:38:27 74° 37° (NE) 860 - -33.4°
Exits shadow 03:39:35 57° 100° (E) 1,037 7.8 -33.1°
Drops below altitude 10° 03:45:54 10° 121° (ESE) 3,271 10.9 -31.5°
Sets 03:49:45 0° 123° (ESE) 4,703 11.9 -30.5°
